This is the latest recevied weather packets stored in our database for station/object N4BBA. If no packets are shown the sender has not sent any weather packets the latest 10 day(s).
| Time | Temp. | Humidity | Pressure | Rain* | Wind** | Luminosity | Snow |
|---|---|---|---|---|---|---|---|
| 1778001639 | 26.11° C | 50% | 1016.2 hPa | 0 mm | - | 852 W/m² | - |
| 1778001333 | 25.56° C | 51% | 1016.3 hPa | 0 mm | - | 886 W/m² | - |
| 1778001031 | 25.56° C | 52% | 1016.4 hPa | 0 mm | - | 862 W/m² | - |
| 1778000728 | 25.56° C | 51% | 1016.1 hPa | 0 mm | - | 832 W/m² | - |
| 1778000424 | 25.56° C | 50% | 1016.3 hPa | 0 mm | - | 835 W/m² | - |
| 1778000119 | 25° C | 52% | 1016.4 hPa | 0 mm | - | 827 W/m² | - |
| 1777999815 | 25° C | 52% | 1016.5 hPa | 0 mm | - | 826 W/m² | - |
| 1777999511 | 25° C | 53% | 1016.5 hPa | 0 mm | - | 829 W/m² | - |
| 1777999209 | 25° C | 53% | 1016.5 hPa | 0 mm | - | 818 W/m² | - |
| 1777998908 | 25° C | 54% | 1016.4 hPa | 0 mm | - | 805 W/m² | - |
| 1777998603 | 25° C | 54% | 1016.3 hPa | 0 mm | - | 806 W/m² | - |
| 1777998297 | 25° C | 53% | 1016.5 hPa | 0 mm | - | 802 W/m² | - |
| 1777997994 | 24.44° C | 54% | 1016.5 hPa | 0 mm | - | 803 W/m² | - |
| 1777997690 | 24.44° C | 54% | 1016.5 hPa | 0 mm | - | 795 W/m² | - |
| 1777997388 | 23.89° C | 55% | 1016.8 hPa | 0 mm | - | 784 W/m² | - |
| 1777997086 | 23.89° C | 56% | 1017 hPa | 0 mm | - | 787 W/m² | - |
| 1777996782 | 24.44° C | 56% | 1016.8 hPa | 0 mm | - | 788 W/m² | - |
| 1777996479 | 24.44° C | 57% | 1016.9 hPa | 0 mm | - | 765 W/m² | - |
| 1777996176 | 23.89° C | 57% | 1017 hPa | 0 mm | - | 774 W/m² | - |
| 1777995872 | 23.89° C | 58% | 1017.1 hPa | 0 mm | - | 771 W/m² | - |
| 1777995568 | 23.89° C | 59% | 1017 hPa | 0 mm | - | 761 W/m² | - |
| 1777995266 | 23.89° C | 61% | 1017.1 hPa | 0 mm | - | 753 W/m² | - |
| 1777994963 | 23.33° C | 61% | 1017 hPa | 0 mm | - | 745 W/m² | - |
| 1777994660 | 23.33° C | 61% | 1017.1 hPa | 0 mm | - | 737 W/m² | - |
| 1777994360 | 23.33° C | 61% | 1017.3 hPa | 0 mm | - | 725 W/m² | - |
* Rain latest hour (hover to see other rain measurements)
** Current wind speed in m/s (hover to see current wind gust speed)